This is the latest recevied weather packets stored in our database for station/object KC3VCX. If no packets are shown the sender has not sent any weather packets the latest 10 day(s).
| Time | Temp. | Humidity | Pressure | Rain* | Wind** | Luminosity | Snow |
|---|---|---|---|---|---|---|---|
| 1777902519 | 15° C | 52% | 1013.4 hPa | 0 mm | - | 487 W/m² | - |
| 1777902216 | 15° C | 52% | 1013.2 hPa | 0 mm | - | 475 W/m² | - |
| 1777901914 | 15° C | 52% | 1013.3 hPa | 0 mm | - | 457 W/m² | - |
| 1777901612 | 14.44° C | 53% | 1013.6 hPa | 0 mm | - | 443 W/m² | - |
| 1777901309 | 14.44° C | 55% | 1013.4 hPa | 0 mm | - | 427 W/m² | - |
| 1777901006 | 14.44° C | 52% | 1013.3 hPa | 0 mm | - | 411 W/m² | - |
| 1777900704 | 14.44° C | 54% | 1013.2 hPa | 0 mm | - | 394 W/m² | - |
| 1777900400 | 13.89° C | 55% | 1013.3 hPa | 0 mm | - | 377 W/m² | - |
| 1777900097 | 13.89° C | 54% | 1013.5 hPa | 0 mm | - | 363 W/m² | - |
| 1777899793 | 13.33° C | 54% | 1013.3 hPa | 0 mm | - | 78 W/m² | - |
| 1777899490 | 13.33° C | 55% | 1013.4 hPa | 0 mm | - | 333 W/m² | - |
| 1777899189 | 12.78° C | 54% | 1013.5 hPa | 0 mm | - | 316 W/m² | - |
| 1777898886 | 12.78° C | 55% | 1013.3 hPa | 0 mm | - | 74 W/m² | - |
| 1777898583 | 12.78° C | 57% | 1013.4 hPa | 0 mm | - | 285 W/m² | - |
| 1777898280 | 12.22° C | 56% | 1013.5 hPa | 0 mm | - | 270 W/m² | - |
| 1777897977 | 12.22° C | 57% | 1013.3 hPa | 0 mm | - | 252 W/m² | - |
| 1777897673 | 12.22° C | 55% | 1013.3 hPa | 0 mm | - | 237 W/m² | - |
| 1777897369 | 11.67° C | 57% | 1013.6 hPa | 0 mm | - | 219 W/m² | - |
| 1777897065 | 11.67° C | 57% | 1013.3 hPa | 0 mm | - | 208 W/m² | - |
| 1777896762 | 11.67° C | 57% | 1013.1 hPa | 0 mm | - | 191 W/m² | - |
| 1777896460 | 11.11° C | 57% | 1013.4 hPa | 0 mm | - | 87 W/m² | - |
| 1777896157 | 11.11° C | 59% | 1013.3 hPa | 0 mm | - | 159 W/m² | - |
| 1777895855 | 11.11° C | 58% | 1013.3 hPa | 0 mm | - | 145 W/m² | - |
| 1777895552 | 10.56° C | 59% | 1013.2 hPa | 0 mm | - | 134 W/m² | - |
| 1777895249 | 10.56° C | 58% | 1013.2 hPa | 0 mm | - | 121 W/m² | - |
* Rain latest hour (hover to see other rain measurements)
** Current wind speed in m/s (hover to see current wind gust speed)